CW8095 Weather Reports


time (UTC)temp
F
wind
direction
speed
knots
gust
knots
rain 1hr
in
rain 24hr
in
rain mn
in
humidity
%
barometer
mb
20220930163022 73 30 0.0 0.0 0.00 0.00 0.00 40 1019.7
20220930160027 72 30 0.0 0.0 0.00 0.00 0.00 44 1020.1
20220930153024 70 30 0.0 0.0 0.00 0.00 0.00 46 1020.1
20220930150022 68 30 0.0 0.0 0.00 0.00 0.00 49 1020.1
20220930143018 65 30 0.0 0.0 0.00 0.00 0.00 57 1020.0
20220930140123 63 30 0.0 0.0 0.00 0.00 0.00 61 1019.7
20220930133018 61 30 0.0 0.0 0.00 0.00 0.00 67 1019.8
20220930130044 58 30 0.0 0.0 0.00 0.00 0.00 71 1019.7
20220930123058 58 30 0.0 0.0 0.00 0.00 0.00 70 1019.6
20220930120043 58 30 0.0 0.0 0.00 0.00 0.00 69 1019.7
20220930113021 58 30 0.0 0.0 0.00 0.00 0.00 71 1019.5
20220930110041 59 30 0.0 0.0 0.00 0.00 0.00 68 1019.5
20220930103022 60 30 0.0 0.0 0.00 0.00 0.00 65 1019.5
20220930100024 61 30 0.0 0.0 0.00 0.00 0.00 62 1019.6
20220930093022 63 30 0.0 0.0 0.00 0.00 0.00 59 1019.4
20220930090021 64 30 0.0 0.0 0.00 0.00 0.00 55 1019.5
20220930083042 65 30 0.0 0.0 0.00 0.00 0.00 54 1019.5
20220930080017 66 30 0.0 0.0 0.00 0.00 0.00 52 1019.7
20220930073105 66 30 0.0 0.0 0.00 0.00 0.00 55 1019.7
20220930063041 66 30 0.0 0.0 0.00 0.00 0.00 58 1019.5
20220930060020 67 30 0.0 0.0 0.00 0.00 0.00 58 1019.6
20220930053206 68 30 0.0 0.0 0.00 0.00 0.00 59 1019.5
20220930050017 68 30 0.0 0.0 0.00 0.00 0.00 56 1019.5
20220930043021 69 30 0.0 0.0 0.00 0.00 0.00 55 1019.5
20220930040021 70 30 0.0 0.0 0.00 0.00 0.00 53 1019.2
20220930033021 71 30 0.0 0.0 0.00 0.00 0.00 51 1019.3
20220930030104 73 30 0.0 0.0 0.00 0.00 0.00 48 1019.0
20220930023021 73 30 0.0 0.0 0.00 0.00 0.00 46 1018.8
20220930020021 74 30 0.0 0.0 0.00 0.00 0.00 46 1018.6
20220930013019 74 30 0.0 0.0 0.00 0.00 0.00 46 1018.5
20220930010022 75 30 0.0 0.0 0.00 0.00 0.00 44 1018.3
20220930003021 77 30 0.0 0.0 0.00 0.00 0.00 43 1018.2
20220930000037 79 30 0.0 0.0 0.00 0.00 0.00 39 1018.4
20220929233020 81 30 0.0 0.0 0.00 0.00 0.00 38 1018.4
20220929230120 82 30 0.0 0.0 0.00 0.00 0.00 35 1018.4
20220929223023 83 23 0.0 0.9 0.00 0.00 0.00 35 1018.5
20220929220044 84 23 0.0 0.9 0.00 0.00 0.00 34 1018.8
20220929213044 84 30 0.0 0.0 0.00 0.00 0.00 34 1019.0
20220929210017 83 23 0.0 0.9 0.00 0.00 0.00 37 1019.2
20220929203023 83 30 0.0 0.0 0.00 0.00 0.00 34 1019.4
20220929200017 84 30 0.0 0.0 0.00 0.00 0.00 35 1020.1
20220929193022 82 23 0.0 0.9 0.00 0.00 0.00 34 1020.6
20220929190017 81 23 0.0 3.5 0.00 0.00 0.00 36 1021.2
20220929183022 80 30 0.0 0.0 0.00 0.00 0.00 35 1021.6
20220929180023 79 30 0.0 0.0 0.00 0.00 0.00 39 1022.2
20220929173023 77 30 0.0 0.0 0.00 0.00 0.00 40 1022.6
20220929170021 75 23 0.0 3.5 0.00 0.00 0.00 40 1023.4